| time (UTC) | temp C | wind direction | speed KPH | gust KPH | rain 1hr cm | rain 24hr cm | rain mn cm | humidity % | barometer mb |
| 20260505010233 | 13 | 228 | 1.6 | 3.2 | 0.00 | 0.20 | 0.00 | 76 | 1008.6 |
| 20260505005734 | 13 | 247 | 1.6 | 4.8 | 0.00 | 0.20 | 0.00 | 75 | 1008.7 |
| 20260505005236 | 13 | 247 | 0.0 | 1.6 | 0.00 | 0.20 | 0.00 | 75 | 1008.8 |
| 20260505004737 | 13 | 180 | 0.0 | 0.0 | 0.00 | 0.20 | 0.00 | 75 | 1008.8 |
| 20260505004239 | 13 | 180 | 0.0 | 0.0 | 0.00 | 0.20 | 0.00 | 75 | 1008.8 |
| 20260505003740 | 13 | 138 | 0.0 | 0.0 | 0.00 | 0.20 | 0.00 | 74 | 1008.9 |
| 20260505003242 | 13 | 270 | 1.6 | 3.2 | 0.00 | 0.20 | 0.00 | 74 | 1008.9 |
| 20260505002743 | 14 | 289 | 1.6 | 4.8 | 0.00 | 0.20 | 0.00 | 74 | 1009.1 |
| 20260505002245 | 14 | 290 | 1.6 | 1.6 | 0.00 | 0.20 | 0.00 | 74 | 1009.1 |
| 20260505001746 | 14 | 132 | 0.0 | 1.6 | 0.00 | 0.20 | 0.00 | 73 | 1009.1 |
| 20260505001248 | 14 | 121 | 1.6 | 4.8 | 0.00 | 0.20 | 0.00 | 73 | 1009.1 |
| 20260505000744 | 14 | 56 | 1.6 | 3.2 | 0.10 | 0.20 | 0.00 | 73 | 1009.3 |
| 20260505000241 | 14 | 345 | 3.2 | 11.3 | 0.10 | 0.20 | 0.00 | 72 | 1009.4 |
| 20260504235738 | 14 | 131 | 6.4 | 11.3 | 0.15 | 0.20 | 0.00 | 72 | 1009.6 |
| 20260504235234 | 14 | 123 | 9.7 | 22.5 | 0.15 | 0.20 | 0.00 | 72 | 1008.8 |
| 20260504234731 | 14 | 125 | 12.9 | 20.9 | 0.15 | 0.20 | 0.00 | 71 | 1008.8 |
| 20260504234228 | 14 | 100 | 8.0 | 12.9 | 0.15 | 0.20 | 0.00 | 70 | 1009.1 |
| 20260504233724 | 14 | 101 | 6.4 | 9.7 | 0.15 | 0.20 | 0.00 | 69 | 1009.6 |
| 20260504233221 | 15 | 103 | 4.8 | 9.7 | 0.15 | 0.20 | 0.00 | 68 | 1009.9 |
| 20260504232718 | 15 | 111 | 4.8 | 9.7 | 0.15 | 0.20 | 0.00 | 67 | 1009.9 |
| 20260504232214 | 15 | 99 | 4.8 | 14.5 | 0.15 | 0.20 | 0.00 | 65 | 1010.2 |
| 20260504231711 | 15 | 97 | 3.2 | 8.0 | 0.15 | 0.20 | 0.00 | 64 | 1010.5 |
| 20260504231208 | 15 | 120 | 1.6 | 4.8 | 0.15 | 0.20 | 0.00 | 63 | 1010.8 |
| 20260504230703 | 15 | 104 | 0.0 | 1.6 | 0.05 | 0.10 | 0.00 | 62 | 1010.9 |
| 20260504230200 | 15 | 93 | 1.6 | 3.2 | 0.05 | 0.10 | 0.00 | 61 | 1011.1 |
| 20260504225701 | 15 | 113 | 1.6 | 3.2 | 0.00 | 0.05 | 0.00 | 60 | 1011.2 |
| 20260504225202 | 15 | 222 | 1.6 | 3.2 | 0.00 | 0.05 | 0.00 | 59 | 1011.3 |
| 20260504224659 | 16 | 230 | 1.6 | 4.8 | 0.05 | 0.05 | 0.00 | 59 | 1011.3 |
| 20260504224156 | 16 | 275 | 3.2 | 11.3 | 0.05 | 0.05 | 0.00 | 58 | 1011.4 |
| 20260504223652 | 16 | 248 | 4.8 | 9.7 | 0.05 | 0.05 | 0.00 | 57 | 1011.5 |
| 20260504223149 | 16 | 261 | 4.8 | 9.7 | 0.05 | 0.05 | 0.00 | 55 | 1011.6 |
| 20260504222645 | 16 | 273 | 6.4 | 12.9 | 0.05 | 0.05 | 0.00 | 54 | 1011.6 |
| 20260504222142 | 16 | 283 | 4.8 | 9.7 | 0.05 | 0.05 | 0.00 | 51 | 1011.6 |
| 20260504221639 | 16 | 224 | 3.2 | 4.8 | 0.05 | 0.05 | 0.00 | 49 | 1011.4 |
| 20260504221136 | 16 | 127 | 0.0 | 1.6 | 0.05 | 0.05 | 0.00 | 46 | 1010.4 |
| 20260504220632 | 16 | 104 | 0.0 | 1.6 | 0.05 | 0.05 | 0.00 | 45 | 1010.4 |
| 20260504220129 | 16 | 129 | 0.0 | 0.0 | 0.05 | 0.05 | 0.00 | 45 | 1010.3 |
| 20260504215626 | 16 | 135 | 0.0 | 0.0 | 0.05 | 0.05 | 0.00 | 44 | 1010.3 |
| 20260504215123 | 16 | 135 | 0.0 | 0.0 | 0.05 | 0.05 | 0.00 | 43 | 1010.3 |
| 20260504214622 | 16 | 135 | 0.0 | 0.0 | 0.00 | 0.00 | 0.00 | 42 | 1010.3 |
| 20260504214124 | 16 | 135 | 0.0 | 0.0 | 0.00 | 0.00 | 0.00 | 41 | 1010.3 |
| 20260504213625 | 17 | 135 | 0.0 | 0.0 | 0.00 | 0.00 | 0.00 | 40 | 1010.4 |
| 20260504213126 | 17 | 135 | 0.0 | 0.0 | 0.00 | 0.00 | 0.00 | 39 | 1010.4 |
| 20260504212628 | 17 | 135 | 0.0 | 0.0 | 0.00 | 0.00 | 0.00 | 39 | 1010.3 |
| 20260504212129 | 17 | 135 | 0.0 | 0.0 | 0.00 | 0.00 | 0.00 | 39 | 1010.4 |
| 20260504211631 | 17 | 135 | 0.0 | 0.0 | 0.00 | 0.00 | 0.00 | 39 | 1010.4 |
| 20260504211132 | 17 | 135 | 0.0 | 0.0 | 0.00 | 0.00 | 0.00 | 39 | 1010.5 |
| 20260504210634 | 17 | 135 | 0.0 | 0.0 | 0.00 | 0.00 | 0.00 | 39 | 1010.5 |
| 20260504210135 | 17 | 143 | 0.0 | 0.0 | 0.00 | 0.00 | 0.00 | 38 | 1010.5 |
| 20260504205637 | 17 | 90 | 0.0 | 0.0 | 0.00 | 0.00 | 0.00 | 38 | 1010.5 |
| 20260504205138 | 17 | 173 | 0.0 | 0.0 | 0.00 | 0.00 | 0.00 | 38 | 1010.6 |
| 20260504204640 | 17 | 135 | 0.0 | 0.0 | 0.00 | 0.00 | 0.00 | 38 | 1010.6 |
| 20260504204141 | 17 | 135 | 0.0 | 0.0 | 0.00 | 0.00 | 0.00 | 38 | 1010.6 |
| 20260504203643 | 17 | 135 | 0.0 | 0.0 | 0.00 | 0.00 | 0.00 | 38 | 1010.5 |
| 20260504203144 | 17 | 135 | 0.0 | 0.0 | 0.00 | 0.00 | 0.00 | 38 | 1010.5 |
| 20260504202646 | 17 | 135 | 0.0 | 0.0 | 0.00 | 0.00 | 0.00 | 37 | 1010.6 |
| 20260504202147 | 17 | 135 | 0.0 | 0.0 | 0.00 | 0.00 | 0.00 | 37 | 1010.6 |
| 20260504201648 | 17 | 135 | 0.0 | 0.0 | 0.00 | 0.00 | 0.00 | 37 | 1010.6 |
| 20260504201150 | 17 | 135 | 0.0 | 0.0 | 0.00 | 0.00 | 0.00 | 37 | 1010.6 |
| 20260504200651 | 17 | 135 | 0.0 | 0.0 | 0.00 | 0.00 | 0.00 | 37 | 1010.6 |
| 20260504200153 | 17 | 135 | 0.0 | 0.0 | 0.00 | 0.00 | 0.00 | 37 | 1010.6 |
| 20260504195654 | 17 | 135 | 0.0 | 0.0 | 0.00 | 0.00 | 0.00 | 36 | 1010.6 |
| 20260504195156 | 17 | 135 | 0.0 | 0.0 | 0.00 | 0.00 | 0.00 | 36 | 1010.6 |
| 20260504194657 | 17 | 135 | 0.0 | 0.0 | 0.00 | 0.00 | 0.00 | 36 | 1010.5 |
| 20260504194159 | 17 | 135 | 0.0 | 0.0 | 0.00 | 0.00 | 0.00 | 36 | 1010.5 |
| 20260504193700 | 17 | 134 | 0.0 | 0.0 | 0.00 | 0.00 | 0.00 | 35 | 1010.5 |
| 20260504193202 | 18 | 135 | 0.0 | 0.0 | 0.00 | 0.00 | 0.00 | 35 | 1010.5 |
| 20260504192703 | 18 | 131 | 0.0 | 3.2 | 0.00 | 0.00 | 0.00 | 35 | 1010.5 |
| 20260504192205 | 18 | 145 | 0.0 | 0.0 | 0.00 | 0.00 | 0.00 | 35 | 1010.5 |
| 20260504191706 | 18 | 126 | 0.0 | 0.0 | 0.00 | 0.00 | 0.00 | 35 | 1010.5 |
| 20260504191208 | 18 | 167 | 0.0 | 0.0 | 0.00 | 0.00 | 0.00 | 34 | 1010.5 |
| 20260504190709 | 19 | 140 | 0.0 | 1.6 | 0.00 | 0.00 | 0.00 | 34 | 1010.4 |
| 20260504190211 | 19 | 139 | 0.0 | 0.0 | 0.00 | 0.00 | 0.00 | 34 | 1010.4 |
| 20260504185712 | 20 | 139 | 0.0 | 0.0 | 0.00 | 0.00 | 0.00 | 33 | 1010.3 |
| 20260504185214 | 20 | 138 | 0.0 | 0.0 | 0.00 | 0.00 | 0.00 | 33 | 1010.4 |
| 20260504184715 | 20 | 135 | 0.0 | 0.0 | 0.00 | 0.00 | 0.00 | 33 | 1010.3 |
| 20260504184217 | 20 | 117 | 0.0 | 3.2 | 0.00 | 0.00 | 0.00 | 33 | 1010.3 |
| 20260504183718 | 20 | 136 | 0.0 | 1.6 | 0.00 | 0.00 | 0.00 | 32 | 1010.2 |
| 20260504183219 | 21 | 131 | 0.0 | 1.6 | 0.00 | 0.00 | 0.00 | 32 | 1010.3 |
| 20260504182721 | 21 | 135 | 0.0 | 0.0 | 0.00 | 0.00 | 0.00 | 32 | 1010.2 |
| 20260504182222 | 21 | 131 | 0.0 | 0.0 | 0.00 | 0.00 | 0.00 | 32 | 1010.2 |
| 20260504181724 | 21 | 135 | 0.0 | 0.0 | 0.00 | 0.00 | 0.00 | 32 | 1010.2 |
| 20260504181225 | 21 | 188 | 0.0 | 0.0 | 0.00 | 0.00 | 0.00 | 31 | 1010.3 |
| 20260504180727 | 22 | 135 | 0.0 | 0.0 | 0.00 | 0.00 | 0.00 | 31 | 1010.3 |
| 20260504180228 | 22 | 135 | 0.0 | 0.0 | 0.00 | 0.00 | 0.00 | 31 | 1010.2 |
| 20260504175730 | 22 | 134 | 0.0 | 0.0 | 0.00 | 0.00 | 0.00 | 31 | 1010.2 |
| 20260504175231 | 22 | 135 | 0.0 | 0.0 | 0.00 | 0.00 | 0.00 | 30 | 1010.2 |
| 20260504174733 | 23 | 135 | 0.0 | 0.0 | 0.00 | 0.00 | 0.00 | 30 | 1010.2 |
| 20260504174234 | 23 | 135 | 0.0 | 0.0 | 0.00 | 0.00 | 0.00 | 30 | 1010.3 |
| 20260504173735 | 23 | 135 | 0.0 | 0.0 | 0.00 | 0.00 | 0.00 | 30 | 1010.2 |
| 20260504173237 | 23 | 135 | 0.0 | 0.0 | 0.00 | 0.00 | 0.00 | 30 | 1010.2 |
| 20260504172848 | 24 | 131 | 0.0 | 0.0 | 0.00 | 0.00 | 0.00 | 29 | 1010.3 |
| 20260504172739 | 24 | 131 | 0.0 | 0.0 | 0.00 | 0.00 | 0.00 | 29 | 1010.3 |
| 20260504172240 | 24 | 126 | 0.0 | 1.6 | 0.00 | 0.00 | 0.00 | 29 | 1010.3 |
| 20260504171742 | 25 | 135 | 0.0 | 1.6 | 0.00 | 0.00 | 0.00 | 29 | 1010.3 |
| 20260504171243 | 25 | 142 | 0.0 | 0.0 | 0.00 | 0.00 | 0.00 | 29 | 1010.4 |
| 20260504170744 | 25 | 143 | 0.0 | 1.6 | 0.00 | 0.00 | 0.00 | 29 | 1010.4 |
| 20260504170246 | 25 | 132 | 0.0 | 1.6 | 0.00 | 0.00 | 0.00 | 29 | 1010.5 |
| 20260504160304 | 30 | 101 | 0.0 | 3.2 | 0.00 | 0.00 | 0.00 | 26 | 1010.9 |
| 20260504150820 | 38 | 110 | 3.2 | 8.0 | 0.00 | 0.00 | 0.00 | 22 | 1011.3 |
| 20260504150321 | 38 | 41 | 3.2 | 9.7 | 0.00 | 0.00 | 0.00 | 22 | 1011.3 |
| 20260504140837 | 37 | 129 | 3.2 | 4.8 | 0.00 | 0.00 | 0.00 | 23 | 1011.7 |
| 20260504140338 | 37 | 105 | 1.6 | 4.8 | 0.00 | 0.00 | 0.00 | 23 | 1011.7 |
| 20260504130355 | 41 | 112 | 1.6 | 3.2 | 0.00 | 0.00 | 0.00 | 22 | 1012.3 |
| 20260504110429 | 40 | 35 | 4.8 | 11.3 | 0.00 | 0.00 | 0.00 | 24 | 1013.5 |
| 20260504100447 | 33 | 141 | 3.2 | 6.4 | 0.00 | 0.00 | 0.00 | 29 | 1014.0 |
| 20260504081519 | 30 | 32 | 3.2 | 11.3 | 0.00 | 0.00 | 0.00 | 32 | 1013.9 |
| 20260504081020 | 29 | 40 | 3.2 | 8.0 | 0.00 | 0.00 | 0.00 | 33 | 1013.8 |
| 20260504080522 | 27 | 107 | 1.6 | 4.8 | 0.00 | 0.00 | 0.00 | 34 | 1013.8 |
| 20260504050614 | 11 | 156 | 0.0 | 3.2 | 0.00 | 0.00 | 0.00 | 45 | 1012.6 |
| 20260504050115 | 11 | 254 | 0.0 | 1.6 | 0.00 | 0.00 | 0.00 | 45 | 1012.6 |
| 20260504045617 | 11 | 270 | 0.0 | 0.0 | 0.00 | 0.00 | 0.00 | 45 | 1012.4 |
| 20260504045118 | 10 | 191 | 0.0 | 0.0 | 0.00 | 0.00 | 0.00 | 45 | 1012.2 |
| 20260504044620 | 10 | 135 | 0.0 | 0.0 | 0.00 | 0.00 | 0.00 | 45 | 1012.2 |
| 20260504044121 | 10 | 195 | 1.6 | 3.2 | 0.00 | 0.00 | 0.00 | 45 | 1012.1 |
| 20260504043623 | 10 | 186 | 0.0 | 0.0 | 0.00 | 0.00 | 0.00 | 45 | 1012.0 |
| 20260504043124 | 10 | 107 | 0.0 | 0.0 | 0.00 | 0.00 | 0.00 | 45 | 1012.2 |
| 20260504042626 | 10 | 156 | 0.0 | 0.0 | 0.00 | 0.00 | 0.00 | 45 | 1012.4 |
| 20260504042127 | 10 | 203 | 0.0 | 0.0 | 0.00 | 0.00 | 0.00 | 45 | 1012.6 |
| 20260504041629 | 9 | 270 | 0.0 | 0.0 | 0.00 | 0.00 | 0.00 | 45 | 1012.6 |
| 20260504041130 | 9 | 270 | 0.0 | 0.0 | 0.00 | 0.00 | 0.00 | 45 | 1012.6 |
| 20260504040632 | 9 | 150 | 0.0 | 0.0 | 0.00 | 0.00 | 0.00 | 45 | 1012.7 |
| 20260504040133 | 9 | 135 | 0.0 | 0.0 | 0.00 | 0.00 | 0.00 | 45 | 1012.7 |
| 20260504035634 | 9 | 135 | 0.0 | 0.0 | 0.00 | 0.00 | 0.00 | 45 | 1012.8 |
| 20260504035136 | 9 | 135 | 0.0 | 0.0 | 0.00 | 0.00 | 0.00 | 44 | 1012.8 |
| 20260504034638 | 9 | 135 | 0.0 | 0.0 | 0.00 | 0.00 | 0.00 | 44 | 1012.7 |
| 20260504034139 | 9 | 135 | 0.0 | 0.0 | 0.00 | 0.00 | 0.00 | 44 | 1012.6 |
| 20260504033640 | 9 | 135 | 0.0 | 0.0 | 0.00 | 0.00 | 0.00 | 44 | 1012.6 |
| 20260504033142 | 9 | 135 | 0.0 | 0.0 | 0.00 | 0.00 | 0.00 | 44 | 1012.5 |
| 20260504032643 | 9 | 135 | 0.0 | 0.0 | 0.00 | 0.00 | 0.00 | 44 | 1012.4 |
| 20260504032145 | 10 | 135 | 0.0 | 0.0 | 0.00 | 0.00 | 0.00 | 44 | 1012.3 |
| 20260504031646 | 10 | 237 | 0.0 | 0.0 | 0.00 | 0.00 | 0.00 | 43 | 1012.2 |
| 20260504031148 | 10 | 201 | 1.6 | 4.8 | 0.00 | 0.00 | 0.00 | 43 | 1012.2 |
| 20260504030649 | 10 | 141 | 0.0 | 1.6 | 0.00 | 0.00 | 0.00 | 43 | 1012.3 |
| 20260504030151 | 10 | 150 | 0.0 | 0.0 | 0.00 | 0.00 | 0.00 | 43 | 1012.3 |
| 20260504025652 | 10 | 135 | 0.0 | 0.0 | 0.00 | 0.00 | 0.00 | 43 | 1012.3 |
| 20260504025154 | 10 | 155 | 0.0 | 0.0 | 0.00 | 0.00 | 0.00 | 43 | 1012.4 |
| 20260504024655 | 10 | 100 | 0.0 | 0.0 | 0.00 | 0.00 | 0.00 | 42 | 1012.4 |
| 20260504024156 | 10 | 110 | 0.0 | 0.0 | 0.00 | 0.00 | 0.00 | 42 | 1012.4 |
| 20260504023658 | 10 | 207 | 0.0 | 0.0 | 0.00 | 0.00 | 0.00 | 42 | 1012.4 |
| 20260504023159 | 10 | 152 | 0.0 | 1.6 | 0.00 | 0.00 | 0.00 | 42 | 1012.3 |
| 20260504022701 | 10 | 155 | 1.6 | 4.8 | 0.00 | 0.00 | 0.00 | 42 | 1012.2 |
| 20260504022202 | 10 | 140 | 0.0 | 1.6 | 0.00 | 0.00 | 0.00 | 42 | 1012.3 |
| 20260504021704 | 11 | 130 | 0.0 | 0.0 | 0.00 | 0.00 | 0.00 | 41 | 1012.3 |
| 20260504021205 | 11 | 241 | 0.0 | 1.6 | 0.00 | 0.00 | 0.00 | 41 | 1012.3 |
| 20260504020707 | 11 | 123 | 0.0 | 0.0 | 0.00 | 0.00 | 0.00 | 41 | 1012.3 |
| 20260504020208 | 11 | 155 | 3.2 | 4.8 | 0.00 | 0.00 | 0.00 | 41 | 1012.2 |
| 20260504015710 | 11 | 127 | 0.0 | 3.2 | 0.00 | 0.00 | 0.00 | 41 | 1012.1 |
| 20260504015211 | 11 | 126 | 0.0 | 4.8 | 0.00 | 0.00 | 0.00 | 41 | 1012.0 |
| 20260504014713 | 11 | 137 | 1.6 | 4.8 | 0.00 | 0.00 | 0.00 | 41 | 1012.1 |
| 20260504014215 | 11 | 153 | 3.2 | 6.4 | 0.00 | 0.00 | 0.00 | 41 | 1011.9 |
| 20260504013716 | 11 | 158 | 1.6 | 3.2 | 0.00 | 0.00 | 0.00 | 40 | 1012.1 |
| 20260504013217 | 11 | 125 | 0.0 | 3.2 | 0.00 | 0.00 | 0.00 | 40 | 1012.1 |
| 20260504012719 | 11 | 139 | 0.0 | 1.6 | 0.00 | 0.00 | 0.00 | 40 | 1012.2 |
| 20260504012220 | 11 | 144 | 0.0 | 0.0 | 0.00 | 0.00 | 0.00 | 40 | 1012.3 |
| 20260504011722 | 11 | 135 | 0.0 | 0.0 | 0.00 | 0.00 | 0.00 | 40 | 1012.2 |
| 20260504011223 | 11 | 254 | 1.6 | 3.2 | 0.00 | 0.00 | 0.00 | 40 | 1012.2 |
| 20260504010724 | 11 | 135 | 0.0 | 0.0 | 0.00 | 0.00 | 0.00 | 39 | 1012.2 |